Hauptseite
METAR-TAF:

METAR-TAF

Flughäfen :

Fliegerhorst Schleswig

Schleswig-Jagel, Deutschland

Breite: 54-28N, Länge: 009-31E, Höhe: 22 m

Beobachtung

Neuester Wetterbericht von vor 25 Minuten, um 00:20 UTC
Wind 7 kt aus Süd/Südost
Temperatur -1°C
Luftfeuchtigkeit 86%
Luftdruck 1037 hPa
Sichtweite 10 km oder mehr

METAR: ETNS 050020Z AUTO 15007KT 9999 // ////// M01/M03 Q1037 ///

Zeit: 01:45 (00:45 UTC)


TAF: fehlend

Wetterbeobachtungen und Prognosen von mehr als 4000 Flughäfen (METAR und TAF Bericht).

Die verfügbaren Stationen werden durch gelbe und rote Markierungen auf der Karte dargestellt.

Führen Sie die Maus auf sie, um den Namen der Station zu sehen.

Darauf klicken, um die Beobachtung von Wetterbeobachtungen und Prognosen zu sehen.

Um die Karte zu ändern : klicken Sie auf den grünen Tasten mit einem schwarzen Kreuz Zum Vergrößern, auf den grünen Button mit einem Gedankenstrich zu verkleinern, oder auf die grünen Pfeile für benachbarte Karten.


METAR-TAF: